Temperature
29 29 28 30 31 31 31 31 31 32 34 33 32 32 33 32 32 31 29 27 26 24 23 21 20 20 19 19 18 18 18 18 18 18 18 18 18 18 18 18 18 18 17 17
29 28 30 31 32 32 31 31 31 32 33 33 32 32 32 31 31 30 29 27 26 24 22 21 20 19 19 18 18 18 18 18 18 18 18 18 18 18 17 17 17 17 17 17
28 30 32 31 31 31 31 31 31 31 32 33 31 30 30 30 30 30 29 27 26 24 23 21 20 19 19 18 18 18 18 18 18 18 18 17 17 17 17 17 17 17 17 17
30 31 32 31 31 31 30 32 32 31 31 31 31 29 29 29 29 29 29 28 26 25 23 22 20 20 19 19 18 18 18 17 17 17 17 17 17 17 18 18 17 17 17 17
30 31 31 31 31 31 31 32 32 31 30 30 30 29 29 29 28 29 30 28 27 25 24 22 21 20 19 19 18 18 18 17 17 17 17 17 17 18 18 17 17 17 17 17
31 32 32 32 32 32 32 31 31 30 30 28 28 28 29 29 29 30 30 28 27 25 24 22 21 20 19 19 18 18 18 17 17 17 17 17 17 17 17 17 17 17 17 17
29 31 32 32 31 32 31 30 28 28 27 26 27 28 29 30 31 31 30 28 26 25 23 22 21 20 19 19 18 18 18 17 18 17 17 17 17 17 17 17 17 17 17 17
29 29 31 32 31 31 31 30 28 27 26 26 26 26 28 31 31 30 29 28 26 25 23 22 21 20 19 19 18 18 18 18 17 17 17 17 17 17 17 17 17 18 17 17
30 30 32 32 32 31 30 30 31 29 28 27 27 28 29 30 31 30 29 27 26 25 23 22 21 20 19 19 18 18 18 17 17 17 17 17 17 17 17 17 17 18 17 17
30 29 31 32 32 32 31 31 30 29 27 27 28 27 26 27 28 30 29 28 26 25 24 22 21 20 20 19 18 18 18 17 17 17 17 17 18 17 17 17 17 17 17 17
31 29 30 31 30 30 31 30 30 30 29 28 27 27 27 26 28 29 29 28 27 26 24 23 21 21 20 19 18 18 18 18 17 17 17 17 17 17 17 17 17 17 17 17
30 30 29 30 32 32 31 31 30 28 28 28 28 27 28 28 29 30 30 28 27 26 24 23 22 21 20 19 19 18 18 17 17 17 17 17 17 17 17 17 17 17 17 17
29 28 27 28 29 30 30 31 31 30 29 28 27 27 28 28 29 29 29 28 27 25 24 23 22 21 20 20 19 18 18 17 17 17 17 17 17 17 17 17 17 17 17 17
28 27 27 27 27 27 27 29 29 29 28 28 28 28 28 28 28 28 27 27 26 25 24 23 22 21 20 20 19 19 18 18 17 17 17 17 17 17 18 17 17 17 17 17
28 27 27 27 28 27 27 27 27 28 29 28 28 28 27 27 27 27 26 26 26 25 24 23 22 21 20 20 19 19 18 18 18 17 17 17 17 17 17 17 17 17 17 17
27 26 26 26 27 27 26 26 27 28 28 29 28 28 27 26 26 26 26 26 25 24 23 22 22 21 20 20 19 19 18 18 18 18 17 17 17 17 17 17 17 17 17 17
26 25 24 25 26 26 25 27 27 28 28 29 28 27 27 25 25 25 25 25 24 23 22 21 21 20 20 19 19 19 19 18 18 18 17 17 17 17 17 17 17 17 17 17
25 24 24 24 25 24 26 28 28 28 28 28 28 27 27 25 24 24 24 23 23 22 21 21 20 20 19 19 19 19 18 18 18 18 17 17 17 17 17 17 17 17 16 16
25 24 23 24 24 25 26 26 26 26 26 27 26 26 25 24 23 22 21 21 20 20 20 19 19 19 19 19 18 18 18 18 18 17 17 17 17 17 16 16 16 16 16 16
25 24 23 23 23 23 24 25 25 25 24 24 24 23 23 23 23 20 19 18 18 18 18 18 18 18 18 18 18 18 18 17 17 17 17 17 16 16 16 16 16 16 16 16
23 23 22 22 22 23 23 24 25 23 21 22 22 22 21 22 21 18 18 17 17 17 17 17 17 17 17 17 17 17 17 17 16 16 16 16 16 16 16 15 15 15 15 15
22 22 21 22 21 21 22 22 21 20 20 20 20 20 19 18 17 17 16 16 16 16 15 16 16 16 16 16 16 16 16 16 16 16 15 15 15 15 15 15 15 15 15 14
22 22 22 21 21 21 20 20 19 19 19 19 18 18 17 16 16 16 15 15 15 14 14 14 14 14 14 15 15 15 14 15 15 15 15 14 14 14 14 14 14 14 14 14
22 22 21 20 21 20 19 18 18 18 18 18 17 17 16 15 15 14 14 14 14 14 13 13 13 13 13 13 14 14 14 14 14 14 14 14 14 13 14 13 13 13 13 13
20 20 20 19 19 19 18 17 17 16 16 16 16 15 15 14 14 13 13 13 13 13 13 13 13 12 12 13 13 13 13 13 13 13 13 13 13 13 13 13 12 12 12 12
20 19 18 18 17 17 16 15 15 15 15 14 14 14 14 14 13 13 12 12 12 12 12 12 12 12 12 12 12 12 12 13 13 12 12 12 12 12 12 12 12 11 11 11
Wind_Speed
16 15 16 17 18 18 17 18 14 11 6 6 9 11 8 3 3 3 4 6 9 10 11 11 11 13 12 12 12 12 12 11 10 8 8 6 6 5 4 4 8 9 9 7
16 20 20 19 18 17 17 17 16 12 9 9 11 13 6 2 3 3 5 8 9 11 12 12 12 12 13 13 12 12 13 13 11 9 7 6 6 5 5 4 6 8 8 8
22 18 19 19 19 17 16 15 15 14 13 12 12 12 6 3 4 4 6 9 10 11 14 14 13 13 13 13 13 13 13 12 11 10 7 6 5 5 5 6 5 5 7 7
20 22 18 14 15 17 15 15 15 15 14 12 11 11 6 6 6 8 8 9 10 10 12 14 14 13 13 13 13 12 13 12 11 11 10 10 8 7 7 6 5 5 6 6
18 19 19 18 16 15 15 14 14 14 13 15 14 13 6 6 5 8 9 9 9 10 11 12 13 13 12 12 13 12 12 12 12 12 11 11 9 8 7 7 7 7 5 5
20 18 17 17 16 15 14 14 13 11 12 15 14 14 8 5 5 7 10 11 9 10 11 12 11 11 11 12 12 13 13 11 12 12 12 11 11 10 9 9 8 7 6 5
21 21 18 14 15 15 15 12 10 10 9 11 11 11 6 5 5 6 10 12 11 11 10 11 11 11 11 12 13 13 13 12 12 12 12 11 11 10 10 10 9 8 7 6
18 17 19 17 16 14 15 15 13 11 9 7 5 7 4 4 6 8 10 11 11 11 11 11 11 10 11 11 11 12 12 12 12 12 10 9 9 8 7 8 8 7 6 6
13 14 15 17 17 18 17 16 17 15 15 12 7 5 2 3 5 9 10 10 11 12 12 11 11 11 11 12 11 12 12 11 11 12 10 9 9 8 7 8 7 6 5 7
17 12 10 13 13 16 17 15 10 11 11 12 9 3 2 3 3 7 10 11 11 12 12 12 11 11 11 11 11 11 12 11 11 11 10 10 9 8 7 7 6 5 5 5
17 14 12 11 14 15 15 16 13 10 9 10 10 3 0 5 5 6 10 12 12 12 13 13 12 10 11 12 12 11 11 11 10 10 9 8 9 8 8 6 6 5 5 6
12 11 12 12 11 13 15 15 14 10 10 10 10 5 5 6 7 7 8 11 12 12 13 13 13 12 11 12 12 12 11 11 11 9 8 8 8 8 8 7 6 6 6 6
6 9 11 12 11 12 13 14 14 13 11 10 11 4 2 3 1 4 7 10 11 12 12 12 12 12 11 10 11 12 12 12 11 10 9 9 9 8 8 7 7 6 6 6
5 8 12 12 5 4 9 12 13 12 10 12 11 6 3 1 1 3 5 8 10 12 12 11 11 11 10 10 10 11 11 12 12 12 11 10 10 9 8 7 7 7 7 6
6 11 12 13 9 8 10 13 15 14 13 13 10 6 4 1 1 2 4 8 9 10 11 11 10 10 10 10 10 10 10 10 10 11 12 11 10 9 8 8 8 7 7 8
6 8 10 13 12 11 12 13 15 16 15 13 11 8 2 1 1 1 4 6 9 10 10 9 8 9 9 9 9 9 9 9 9 9 10 10 9 9 9 8 8 7 7 6
6 6 10 14 14 12 15 14 14 13 14 13 11 6 1 2 2 3 4 5 7 8 9 8 7 8 8 8 7 7 8 8 8 8 8 8 9 9 8 9 8 7 7 6
7 7 7 12 13 16 9 6 8 10 11 9 8 4 1 2 3 4 4 6 7 7 7 7 7 7 7 7 7 7 8 8 7 7 6 7 7 7 7 6 6 6 5 5
8 7 8 11 14 15 9 5 6 8 8 6 6 4 3 5 5 7 8 9 9 8 7 7 6 6 6 7 7 7 7 7 7 7 5 5 5 6 5 5 4 4 4 4
9 8 9 10 12 12 4 6 6 6 6 9 8 6 4 2 0 3 7 9 10 10 9 7 7 7 7 5 7 8 7 7 6 6 5 4 4 5 5 5 4 3 3 4
12 10 12 14 14 8 5 8 7 5 4 11 9 6 3 3 3 6 8 10 11 10 10 8 9 9 7 7 8 9 9 8 7 7 7 7 6 5 6 5 4 4 5 5
8 8 9 10 12 7 9 7 5 5 8 9 8 7 6 7 9 10 11 11 11 10 11 11 11 11 9 9 10 11 10 9 9 10 10 9 8 7 7 7 6 5 5 5
4 3 2 2 2 4 7 5 5 6 7 7 5 6 7 8 8 10 11 11 12 11 11 11 13 13 11 11 11 12 10 9 10 12 11 10 10 9 8 8 7 6 5 5
1 1 2 3 1 3 7 7 8 7 5 4 5 7 9 9 9 10 10 11 12 12 11 11 13 13 12 12 12 11 10 10 11 12 11 10 10 11 11 9 8 8 7 6
3 3 3 4 4 4 5 7 8 7 6 6 7 7 8 10 11 11 12 12 12 11 11 11 12 12 12 12 12 11 10 10 11 10 10 10 11 11 11 11 10 10 8 7
2 3 3 3 2 3 3 5 6 6 6 6 8 8 9 10 13 14 13 12 12 12 11 12 13 13 13 12 11 10 10 9 9 8 8 8 8 8 8 9 10 15 12 14
Wind_Direction
219 228 237 241 242 253 268 285 287 278 274 269 279 283 271 239 234 200 149 143 156 161 160 155 157 158 162 163 165 166 168 165 163 166 171 169 167 168 159 157 156 162 160 160
226 229 239 251 259 262 267 278 284 286 286 281 282 285 279 247 252 206 157 162 169 159 155 155 157 161 165 166 167 167 168 167 172 172 168 170 166 172 170 164 152 160 155 159
228 237 231 238 252 259 260 265 274 281 284 274 274 278 267 232 237 200 176 166 158 165 162 162 166 168 168 169 171 173 171 173 176 169 163 165 159 166 163 154 155 161 164 173
234 244 253 246 245 252 258 262 271 276 278 279 276 280 251 202 203 205 185 162 159 163 160 164 167 170 172 173 173 169 172 175 173 169 172 170 174 175 171 162 160 163 170 172
234 235 242 248 252 254 260 266 269 275 278 279 276 276 268 174 201 202 171 154 158 158 156 159 167 170 173 173 171 170 172 175 174 178 177 176 181 175 164 157 158 167 168 174
250 246 237 242 247 249 252 259 263 265 270 269 273 275 263 196 195 179 156 149 150 150 151 155 161 162 171 171 171 170 170 174 175 180 179 183 180 170 165 163 166 172 168 180
246 248 244 238 245 238 237 243 251 250 247 258 282 275 262 170 162 154 148 144 147 145 150 155 161 166 169 172 173 171 169 171 173 178 180 184 179 174 168 167 173 179 174 179
232 236 233 228 232 242 231 235 245 260 261 267 267 253 263 151 127 128 134 141 147 148 150 156 161 165 169 172 169 166 166 169 172 175 178 180 174 174 174 177 178 187 184 176
243 235 224 219 218 233 241 238 248 260 270 271 253 229 229 167 152 144 143 147 155 152 151 156 160 167 170 170 169 167 163 164 170 173 172 174 176 181 178 178 184 182 178 172
256 274 246 212 213 224 240 248 253 256 268 277 273 253 252 250 220 171 155 159 160 154 155 155 158 165 166 164 161 160 161 166 169 168 170 175 177 176 168 171 180 174 179 168
241 258 258 223 212 224 223 236 247 262 263 270 280 281 185 230 217 201 167 160 156 156 156 153 156 158 156 157 157 160 159 161 165 169 171 167 169 171 167 173 174 168 174 167
236 247 255 246 234 233 232 231 235 245 260 272 282 273 210 220 227 193 154 146 150 151 152 152 153 153 154 158 159 161 160 164 167 168 165 165 166 169 172 177 173 169 177 183
265 249 247 248 245 236 245 237 238 244 252 260 269 266 176 238 221 114 139 138 140 144 148 149 150 153 156 156 155 160 164 167 168 166 167 167 170 174 178 182 179 178 183 191
277 254 254 254 265 292 279 276 269 257 252 257 262 264 237 253 51 119 138 140 145 147 145 146 149 154 155 154 156 160 166 168 170 171 172 174 179 182 181 184 185 184 181 189
261 250 256 267 276 281 281 276 276 275 270 267 267 260 278 254 184 156 147 146 142 142 146 147 154 153 152 153 155 162 166 168 169 172 173 177 181 181 181 184 188 188 188 197
231 269 275 271 265 261 263 259 265 269 273 274 277 278 287 73 86 162 169 159 152 148 148 146 146 145 147 151 156 157 162 166 166 172 177 176 178 181 184 187 191 191 193 197
238 249 266 269 271 261 254 254 257 259 267 271 274 285 255 104 148 174 154 146 141 137 135 137 148 145 145 151 152 156 161 162 165 172 176 173 178 183 187 192 189 190 192 193
257 258 258 264 270 265 267 278 281 270 271 288 297 308 315 105 87 74 97 122 114 113 118 124 132 134 141 147 151 151 154 154 157 165 176 172 176 182 183 188 190 188 185 186
232 238 251 258 260 261 264 289 298 294 287 336 332 339 35 62 80 71 71 85 88 85 91 99 111 126 132 140 142 139 142 147 156 162 163 162 171 173 168 174 176 173 175 178
215 210 234 250 259 264 303 351 343 309 276 8 11 23 31 17 339 89 73 77 82 82 73 78 91 92 94 105 129 125 120 119 122 124 128 133 140 144 146 149 150 152 151 149
210 212 228 245 254 261 338 342 327 279 334 2 9 13 0 348 27 105 95 83 77 80 85 81 82 80 79 85 98 103 100 96 97 100 97 95 101 110 112 114 113 117 119 120
215 222 232 244 251 249 16 10 8 356 344 351 12 25 48 71 96 102 98 91 84 80 82 82 79 73 69 77 86 87 84 83 84 85 83 80 77 82 88 92 94 104 116 119
229 232 234 253 268 51 35 27 5 347 340 354 36 55 89 99 104 103 99 95 88 80 78 77 80 75 67 69 78 83 79 82 86 85 81 77 73 69 67 73 78 80 80 86
249 352 259 268 283 24 26 19 9 3 8 25 72 85 103 108 108 106 99 94 91 85 82 82 83 80 74 71 76 79 79 82 86 87 85 82 76 72 64 58 59 62 56 58
329 313 283 267 292 337 17 20 19 28 39 62 87 95 108 112 110 107 103 96 92 88 85 84 84 85 82 77 76 76 80 84 85 85 87 88 83 78 73 66 54 61 55 62
335 330 299 294 2 339 1 21 31 42 58 87 102 98 102 108 110 105 100 97 95 91 88 86 84 85 83 80 76 73 74 79 83 85 82 84 89 91 92 92 79 57 64 67
Height
1470 1473 1472 1465 1459 1457 1456 1456 1455 1448 1439 1443 1447 1447 1445 1447 1450 1453 1457 1463 1468 1472 1476 1479 1482 1485 1488 1492 1496 1499 1503 1507 1512 1517 1521 1525 1529 1533 1536 1539 1542 1544 1547 1549
1468 1468 1461 1456 1453 1452 1454 1457 1454 1446 1440 1443 1447 1447 1443 1445 1449 1452 1456 1461 1465 1470 1475 1478 1481 1483 1487 1490 1494 1497 1501 1505 1510 1515 1519 1524 1528 1532 1535 1538 1541 1543 1546 1548
1464 1456 1451 1453 1454 1455 1454 1456 1454 1451 1445 1441 1447 1452 1448 1446 1449 1452 1455 1458 1462 1467 1472 1476 1479 1483 1486 1489 1492 1496 1499 1503 1508 1513 1518 1522 1527 1531 1534 1537 1539 1542 1545 1547
1455 1450 1447 1448 1451 1451 1456 1448 1447 1448 1453 1454 1450 1466 1452 1446 1449 1451 1452 1456 1460 1465 1469 1473 1477 1481 1484 1487 1490 1494 1498 1502 1506 1511 1515 1519 1523 1527 1531 1535 1538 1541 1544 1546
1449 1445 1446 1449 1447 1446 1448 1443 1445 1447 1452 1457 1452 1460 1453 1445 1451 1448 1448 1453 1458 1463 1468 1472 1475 1478 1482 1486 1489 1492 1495 1500 1504 1508 1512 1517 1522 1526 1530 1533 1537 1540 1542 1545
1440 1436 1437 1440 1440 1441 1442 1445 1446 1449 1456 1471 1461 1462 1458 1444 1445 1443 1446 1451 1457 1462 1466 1470 1474 1478 1481 1485 1487 1490 1493 1497 1501 1505 1510 1515 1520 1524 1528 1531 1535 1538 1541 1543
1445 1437 1432 1434 1440 1439 1442 1454 1469 1474 1477 1476 1460 1462 1452 1436 1434 1437 1443 1449 1455 1460 1465 1469 1473 1476 1479 1482 1485 1488 1491 1495 1499 1503 1508 1513 1517 1522 1525 1529 1533 1536 1539 1541
1448 1446 1432 1430 1437 1441 1441 1448 1469 1480 1481 1474 1466 1466 1447 1432 1433 1437 1443 1448 1454 1459 1464 1468 1471 1475 1478 1481 1484 1486 1489 1493 1497 1501 1506 1511 1515 1519 1523 1527 1531 1534 1537 1539
1437 1437 1422 1423 1427 1434 1441 1442 1439 1452 1458 1467 1461 1452 1442 1433 1434 1437 1442 1448 1452 1457 1462 1467 1470 1474 1477 1479 1482 1485 1488 1492 1496 1500 1504 1508 1513 1517 1521 1525 1529 1532 1535 1537
1428 1436 1422 1419 1424 1427 1431 1433 1441 1451 1467 1472 1459 1456 1457 1447 1439 1437 1441 1446 1451 1456 1461 1465 1469 1473 1476 1479 1482 1485 1487 1490 1495 1499 1502 1506 1511 1515 1519 1523 1527 1530 1533 1535
1424 1435 1430 1423 1428 1432 1432 1436 1439 1442 1446 1463 1469 1463 1442 1443 1439 1438 1438 1443 1448 1453 1459 1463 1468 1472 1475 1478 1481 1484 1487 1490 1494 1498 1501 1505 1509 1513 1517 1521 1524 1527 1530 1532
1423 1429 1435 1427 1418 1418 1423 1429 1435 1451 1454 1449 1456 1458 1434 1435 1436 1435 1437 1442 1446 1452 1457 1462 1467 1471 1474 1478 1481 1484 1487 1490 1493 1497 1500 1504 1508 1512 1515 1518 1522 1524 1527 1530
1426 1432 1445 1443 1434 1425 1425 1424 1426 1431 1439 1448 1457 1454 1434 1434 1433 1435 1438 1442 1446 1452 1456 1461 1466 1470 1474 1477 1480 1483 1486 1489 1493 1496 1499 1503 1506 1510 1514 1517 1519 1522 1524 1526
1429 1433 1441 1448 1443 1438 1438 1432 1429 1433 1443 1447 1446 1444 1438 1436 1436 1438 1440 1442 1446 1451 1456 1461 1465 1469 1473 1476 1480 1483 1486 1489 1492 1495 1498 1501 1505 1508 1512 1515 1518 1520 1522 1523
1430 1436 1435 1434 1432 1436 1439 1439 1436 1435 1434 1440 1438 1439 1438 1435 1437 1439 1441 1443 1447 1451 1456 1460 1464 1468 1472 1475 1479 1482 1485 1488 1491 1494 1497 1500 1503 1507 1510 1513 1516 1518 1520 1522
1432 1439 1439 1440 1434 1436 1439 1437 1435 1433 1431 1431 1432 1436 1433 1435 1437 1439 1441 1444 1446 1451 1454 1459 1463 1466 1470 1474 1478 1481 1484 1487 1490 1493 1496 1499 1502 1505 1508 1511 1514 1516 1518 1520
1433 1441 1446 1446 1437 1438 1445 1434 1431 1430 1427 1428 1433 1433 1432 1436 1439 1441 1442 1444 1447 1451 1454 1458 1462 1465 1469 1473 1476 1480 1483 1487 1489 1492 1495 1498 1501 1503 1506 1509 1511 1514 1516 1518
1437 1442 1446 1446 1447 1457 1436 1424 1424 1426 1426 1424 1426 1428 1431 1435 1439 1441 1442 1445 1448 1452 1455 1458 1462 1465 1469 1472 1476 1479 1482 1485 1488 1490 1494 1496 1499 1501 1504 1507 1509 1511 1513 1515
1433 1441 1446 1447 1449 1442 1432 1427 1428 1431 1431 1428 1430 1432 1435 1438 1441 1445 1446 1448 1450 1452 1455 1458 1462 1466 1468 1472 1475 1478 1481 1484 1486 1489 1492 1495 1497 1500 1502 1504 1506 1509 1510 1512
1432 1437 1446 1447 1452 1452 1439 1430 1430 1432 1438 1436 1435 1437 1438 1439 1443 1450 1451 1451 1453 1454 1456 1459 1462 1465 1468 1471 1474 1477 1480 1483 1485 1488 1490 1493 1495 1498 1500 1502 1504 1506 1508 1509
1437 1440 1445 1447 1450 1442 1437 1432 1432 1444 1449 1442 1440 1442 1443 1443 1446 1451 1452 1453 1455 1456 1458 1461 1463 1465 1468 1471 1474 1476 1479 1482 1485 1487 1490 1492 1495 1497 1498 1500 1502 1504 1506 1507
1436 1441 1444 1445 1451 1450 1441 1437 1444 1449 1447 1445 1444 1444 1445 1447 1449 1452 1454 1456 1457 1459 1460 1462 1463 1466 1469 1471 1474 1476 1480 1483 1485 1487 1489 1491 1494 1496 1498 1499 1501 1503 1505 1506
1432 1435 1438 1443 1447 1445 1444 1446 1448 1448 1447 1446 1447 1448 1447 1450 1453 1455 1457 1458 1460 1462 1463 1465 1467 1469 1471 1474 1476 1478 1481 1484 1486 1488 1490 1492 1494 1496 1498 1500 1501 1503 1505 1506
1433 1434 1437 1441 1441 1444 1446 1447 1448 1448 1448 1448 1448 1449 1450 1452 1455 1457 1459 1461 1462 1465 1467 1469 1470 1472 1475 1478 1479 1481 1484 1486 1488 1490 1492 1494 1496 1498 1500 1501 1502 1503 1504 1506
1438 1438 1440 1443 1444 1446 1447 1449 1449 1449 1449 1448 1449 1451 1452 1454 1457 1460 1462 1465 1467 1469 1472 1473 1475 1477 1480 1482 1484 1486 1488 1490 1491 1493 1495 1497 1499 1500 1502 1503 1504 1505 1506 1508
1439 1442 1444 1446 1448 1450 1451 1451 1450 1450 1450 1451 1452 1454 1456 1458 1460 1463 1465 1468 1471 1473 1476 1477 1480 1482 1485 1487 1489 1490 1492 1494 1495 1497 1499 1500 1502 1503 1505 1506 1507 1508 1509 1510